Tucson, AZ

12:06 PM MST on January 22, 2017 (GMT -0700)
Tucson International

Weather History for KTUS - August, 2014

Change the Weather History Date:

Thursday, August 28, 2014

  Actual Average Record
Temperature  
Mean Temperature 87 °F 85 °F  
Max Temperature 99 °F 98 °F 107 °F (1998)
Min Temperature 74 °F 73 °F 59 °F (1900)
Degree Days  
Heating Degree Days 0 0  
Month to date heating degree days 0 0  
Since 1 June heating degree days 0 0  
Since 1 July heating degree days 0 0  
Cooling Degree Days 22 20  
Month to date cooling degree days 564 566  
Year to date cooling degree days 2622 2345  
Since 1 June cooling degree days 2019 1843  
Growing Degree Days 36 (Base 50)    
Moisture  
Dew Point 52 °F    
Average Humidity 38    
Maximum Humidity 58    
Minimum Humidity 17    
Precipitation  
Precipitation 0.00 in 0.07 in 0.81 in (1969)
Month to date precipitation 1.89 2.20  
Year to date precipitation 3.93 7.72  
Sea Level Pressure  
Sea Level Pressure 29.85 in    
Wind  
Wind Speed 7 mph (SW)    
Max Wind Speed 15 mph    
Max Gust Speed 19 mph    
Visibility 10 miles    
Events      
T = Trace of Precipitation, MM = Missing Value Source: NWS Daily Summary

Daily Weather History Graph

Daily Weather History Graph

Search for Another Location

Airport or City:

Trip Planner

Search our weather history database for the weather conditions in past years. The results will help you decide how hot, cold, wet, or windy it might be!

Date:

Astronomy

Aug. 28, 2014 Rise Set
Actual Time 5:56 AM MST 6:52 PM MST
Civil Twilight 5:31 AM MST 7:17 PM MST
Nautical Twilight 5:01 AM MST 7:47 PM MST
Astronomical Twilight 4:31 AM MST 8:17 PM MST
Moon 8:39 AM MST (8/28) 8:32 PM MST (8/28)
Length of Visible Light 13h 46m
Length of Day
12h 56m
Waxing Crescent, 9% of the Moon is Illuminated
Aug 28
Waxing Crescent
Sep 2
First Quarter
Sep 8
Full
Sep 15
Last Quarter
Sep 23
New

Hourly Weather History & Observations

Time (MST) Temp. Heat Index Dew Point Humidity Pressure Visibility Wind Dir Wind Speed Gust Speed Precip Events Conditions
12:53 AM 79.0 °F - 57.0 °F 47% 29.90 in 10.0 mi SSE 5.8 mph - N/A   Clear
1:53 AM 78.1 °F - 57.0 °F 48% 29.90 in 10.0 mi South 4.6 mph - N/A   Clear
2:53 AM 75.9 °F - 57.9 °F 54% 29.90 in 10.0 mi SSE 4.6 mph - N/A   Clear
3:53 AM 75.0 °F - 59.0 °F 57% 29.90 in 10.0 mi SE 8.1 mph - N/A   Clear
4:53 AM 75.0 °F - 57.9 °F 55% 29.91 in 10.0 mi SSE 5.8 mph - N/A   Clear
5:53 AM 75.9 °F - 57.9 °F 54% 29.91 in 10.0 mi South 5.8 mph - N/A   Clear
6:53 AM 75.0 °F - 59.0 °F 57% 29.93 in 10.0 mi SSE 8.1 mph - N/A   Clear
7:53 AM 79.0 °F - 60.1 °F 52% 29.93 in 10.0 mi South 6.9 mph - N/A   Clear
8:53 AM 84.0 °F 83.8 °F 59.0 °F 43% 29.92 in 10.0 mi SSE 4.6 mph - N/A   Clear
9:53 AM 88.0 °F 86.7 °F 57.0 °F 35% 29.91 in 10.0 mi WSW 4.6 mph - N/A   Clear
10:53 AM 93.0 °F 91.1 °F 55.0 °F 28% 29.89 in 10.0 mi NW 8.1 mph - N/A   Clear
11:53 AM 95.0 °F - 46.9 °F 19% 29.87 in 10.0 mi North 11.5 mph - N/A   Clear
12:53 PM 97.0 °F - 44.1 °F 16% 29.84 in 10.0 mi NE 6.9 mph - N/A   Clear
1:53 PM 99.0 °F - 46.0 °F 16% 29.81 in 10.0 mi North 11.5 mph - N/A   Clear
2:53 PM 96.1 °F - 50.0 °F 21% 29.80 in 10.0 mi Variable 4.6 mph - N/A   Partly Cloudy
3:53 PM 97.0 °F - 48.0 °F 19% 29.78 in 10.0 mi NW 11.5 mph - N/A   Clear
4:53 PM 97.0 °F - 46.9 °F 18% 29.77 in 10.0 mi NW 6.9 mph - N/A   Clear
5:53 PM 96.1 °F - 46.9 °F 19% 29.77 in 10.0 mi NW 6.9 mph - N/A   Clear
6:53 PM 93.9 °F - 46.0 °F 19% 29.78 in 10.0 mi NW 10.4 mph - N/A   Mostly Cloudy
7:53 PM 90.0 °F - 43.0 °F 19% 29.79 in 10.0 mi NNW 4.6 mph - N/A   Partly Cloudy
8:53 PM 90.0 °F - 45.0 °F 21% 29.80 in 10.0 mi North 3.5 mph - N/A   Mostly Cloudy
9:53 PM 86.0 °F - 45.0 °F 24% 29.81 in 10.0 mi West 5.8 mph - N/A   Partly Cloudy
10:53 PM 84.9 °F - 46.0 °F 26% 29.80 in 10.0 mi WSW 4.6 mph - N/A   Clear
11:53 PM 81.0 °F - 46.9 °F 30% 29.80 in 10.0 mi South 6.9 mph - N/A   Clear